Regional Weather Roundup
Issued by NWS

Home | Current Version | Previous Version | Graphics & Text | Print | Product List | Glossary On
Versions: 1 2 3 4 5 6 7 8 9 10 11 12 13 14 15 16 17 18 19 20 21 22 23 24 25 26 27 28 29 30 31 32 33 34 35 36 37 38 39 40 41 42 43 44 45 46 47 48 49 50
000
ASUS45 KSLC 250110
RWRUT

UTAH REGIONAL WEATHER ROUNDUP
NATIONAL WEATHER SERVICE SALT LAKE CITY UT
700 PM MDT FRI APR 24 2015

UTZ001>011-023>025-250200-

NORTHERN UTAH

CITY           SKY/WX    TMP DP  RH WIND       PRES   REMARKS
BRIGHAM CITY   CLOUDY    56  42  58 S13       29.68S
HILL AFB       LGT RAIN  53  44  70 SW7       29.71R
LOGAN          CLOUDY    55  40  56 S12       29.67S
OGDEN          LGT RAIN  55  41  59 S17       29.68S
PROVO AIRPORT  CLOUDY    52  39  62 NW13      29.72S
SALT LAKE CITY CLOUDY    56  43  61 E3        29.69F
VERNAL         MOSUNNY   60  28  29 SE8       29.67F
WENDOVER       CLOUDY    55  36  47 W9G20     29.70S
HEBER CITY     CLOUDY    50  36  57 S5        29.75R
WEST JORDAN    CLOUDY    54  45  71 N3        29.71R

$$

UTZ012>022-026-027-250200-

SOUTHERN/CENTRAL UTAH

CITY           SKY/WX    TMP DP  RH WIND       PRES   REMARKS
BLANDING       MOSUNNY   60  22  23 SW12      29.87R
BRYCE CANYON   MOSUNNY   48  29  47 SW18G25   29.87R
CEDAR CITY     CLOUDY    55  33  43 S24G40    29.80R
DELTA          CLOUDY    57  35  43 SW15G29   29.74R
HANKSVILLE     PTSUNNY   63  32  31 S9        29.73R
MILFORD        CLOUDY    54  31  41 W20G28    29.75R
MOAB/CYNLANDS  MOSUNNY   67  20  16 SW17G26   29.66R
PRICE          CLOUDY    57  29  34 NW16      29.73R
ST GEORGE      CLOUDY    68  36  30 S20G29    29.75S
KANAB          PTSUNNY   61  32  33 SW21G26   29.84R

$$

REGIONAL REPORTS     COLORADO/ARIZONA

CITY           SKY/WX    TMP DP  RH WIND       PRES   REMARKS
CRAIG, CO      CLOUDY    53  31  42 W9        29.74R
GRAND JUNCTION PTSUNNY   59  31  34 SE21      29.70S
RIFLE          PTCLDY    55  31  39 CALM      29.77F
MONTROSE       CLOUDY    57  27  31 NE3       29.80R
CORTEZ         MOSUNNY   58  26  29 SE6       29.83R
PAGE, AZ       MOSUNNY   68  30  24 W7        29.76S
GRAND CANYON   CLOUDY    51  30  44 SW22G30   29.92R
KINGMAN        PTSUNNY   65  35  33 SW22G32   29.83S
FLAGSTAFF      LGT RAIN  42  41  96 SW10      29.98R

$$

REGIONAL REPORTS    NEVADA/IDAHO/WYOMING

CITY           SKY/WX    TMP DP  RH WIND       PRES   REMARKS
LAS VEGAS, NV  PTSUNNY   76  35  22 S17G29    29.66R
ELY            CLOUDY    43  39  86 E6        29.82S
ELKO           CLOUDY    45  34  65 W8        29.81S
POCATELLO, ID  CLOUDY    48  40  73 SW16      29.72S
BURLEY         CLOUDY    49  34  56 W9        29.71R
EVANSTON, WY   CLOUDY    41  35  79 SW14      29.78R
ROCK SPRINGS   CLOUDY    47  35  63 W12       29.74R
KEMMERER       CLOUDY    41  37  87 SW21G26   29.75R

$$



USA.gov is the U.S. government's official web portal to all federal, state and local government web resources and services.